Location: Tamazert
(32.6352°N, 5.2072°W)
Time: 19:09:07
(UTC+00:00)

Vanguard 3 - Pass Details

Date: 07 October 2022
Orbit: 509 x 3255 km, 33.3° (Epoch: 02 December)

Event Time Altitude Azimuth Distance (km) Brightness Sun altitude
Rises 13:10:00 0° 277° (W) 3,588 10.6 49.1°
Reaches altitude 10° 13:12:19 10° 268° (W) 2,904 10.4 48.9°
Maximum altitude 13:18:58 38° 203° (SSW) 2,170 11.7 48.3°
Drops below altitude 10° 13:30:03 10° 142° (SE) 4,839 11.4 47.1°
Sets 13:35:12 0° 135° (SE) 6,288 11.8 46.6°
